DW0742 Weather Reports


Display with metric or nautical units.
time (UTC)temp
F
wind
direction
speed
MPH
gust
MPH
rain 1hr
in
rain 24hr
in
rain mn
in
humidity
%
barometer
mb
20260508011542 99 0 0.0 3.0 0.00 0.00 0.00 7 1002.4
20260508010039 100 0 0.0 3.0 0.00 0.00 0.00 6 1002.5
20260508004538 101 0 0.0 3.0 0.00 0.00 0.00 4 1002.7
20260508003037 102 0 0.0 2.0 0.00 0.00 0.00 4 1002.5
20260508001547 102 0 0.0 0.0 0.00 0.00 0.00 4 1002.4
20260508000035 102 0 0.0 0.0 0.00 0.00 0.00 2 1002.5
20260507234538 102 0 0.0 2.0 0.00 0.00 0.00 2 1002.6
20260507233038 102 0 0.0 1.0 0.00 0.00 0.00 1 1002.6
20260507231537 101 0 0.0 6.0 0.00 0.00 0.00 1 1002.8
20260507230037 102 0 0.0 3.0 0.00 0.00 0.00 1 1002.8
20260507224543 102 0 0.0 3.0 0.00 0.00 0.00 4 1003.1
20260507223039 102 0 0.0 2.0 0.00 0.00 0.00 1 1003.4
20260507221538 101 0 0.0 0.0 0.00 0.00 0.00 1 1003.7
20260507220038 102 0 0.0 2.0 0.00 0.00 0.00 100 1003.9
20260507214543 103 0 0.0 3.0 0.00 0.00 0.00 3 1004.1
20260507213044 103 0 0.0 5.0 0.00 0.00 0.00 3 1004.6
20260507211550 102 0 1.0 8.0 0.00 0.00 0.00 1 1004.7
20260507210042 101 0 0.0 4.0 0.00 0.00 0.00 3 1005.0
20260507204543 101 119 0.0 2.0 0.00 0.00 0.00 2 1005.2
20260507203036 100 0 0.0 1.0 0.00 0.00 0.00 3 1005.4
20260507201546 100 0 0.0 0.0 0.00 0.00 0.00 3 1005.6
20260507200044 98 0 0.0 0.0 0.00 0.00 0.00 4 1005.9
20260507194539 96 0 0.0 2.0 0.00 0.00 0.00 13 1006.2
20260507193040 94 0 0.0 0.0 0.00 0.00 0.00 13 1006.6
20260507191544 94 79 0.0 5.0 0.00 0.00 0.00 14 1006.8
20260507190042 92 0 0.0 3.0 0.00 0.00 0.00 15 1007.0
20260507184542 92 0 0.0 0.0 0.00 0.00 0.00 15 1007.2
20260507183051 92 0 0.0 0.0 0.00 0.00 0.00 15 1007.4
20260507181558 90 0 0.0 0.0 0.00 0.00 0.00 15 1007.6
20260507180046 90 0 0.0 0.0 0.00 0.00 0.00 15 1007.8
20260507174541 89 0 0.0 0.0 0.00 0.00 0.00 16 1007.9
20260507173056 88 0 0.0 0.0 0.00 0.00 0.00 17 1008.0
20260507171541 88 0 0.0 0.0 0.00 0.00 0.00 19 1008.2
20260507170048 87 0 0.0 0.0 0.00 0.00 0.00 21 1008.2
20260507164536 86 0 0.0 0.0 0.00 0.00 0.00 20 1008.2
20260507163045 85 0 0.0 0.0 0.00 0.00 0.00 23 1008.3
20260507161551 84 0 0.0 0.0 0.00 0.00 0.00 25 1008.4
20260507160044 83 0 0.0 0.0 0.00 0.00 0.00 26 1008.5
20260507154543 82 0 0.0 0.0 0.00 0.00 0.00 24 1008.6
20260507153039 81 0 0.0 0.0 0.00 0.00 0.00 24 1008.5
20260507151537 80 0 0.0 0.0 0.00 0.00 0.00 26 1008.4
20260507150037 77 0 0.0 0.0 0.00 0.00 0.00 30 1008.5
20260507144543 73 0 0.0 0.0 0.00 0.00 0.00 39 1008.6
20260507143056 70 0 0.0 0.0 0.00 0.00 0.00 46 1008.3
20260507141539 67 0 0.0 0.0 0.00 0.00 0.00 48 1008.2
20260507140038 66 0 0.0 0.0 0.00 0.00 0.00 49 1008.0
20260507134536 64 0 0.0 0.0 0.00 0.00 0.00 48 1007.8
20260507133047 63 0 0.0 0.0 0.00 0.00 0.00 47 1007.6
20260507131547 63 0 0.0 0.0 0.00 0.00 0.00 47 1007.7
20260507130058 63 0 0.0 0.0 0.00 0.00 0.00 47 1007.5
20260507124540 63 0 0.0 0.0 0.00 0.00 0.00 47 1007.5
20260507123038 63 0 0.0 0.0 0.00 0.00 0.00 45 1007.5
20260507121537 63 0 0.0 0.0 0.00 0.00 0.00 44 1007.4
20260507120044 64 0 0.0 0.0 0.00 0.00 0.00 44 1007.5
20260507114540 64 0 0.0 0.0 0.00 0.00 0.00 44 1007.5
20260507113046 64 0 0.0 0.0 0.00 0.00 0.00 43 1007.5
20260507111541 65 0 0.0 0.0 0.00 0.00 0.00 42 1007.5
20260507110045 65 0 0.0 0.0 0.00 0.00 0.00 40 1007.5
20260507104545 65 0 0.0 0.0 0.00 0.00 0.00 40 1007.6
20260507103111 65 0 0.0 0.0 0.00 0.00 0.00 41 1007.7
20260507101540 66 0 0.0 0.0 0.00 0.00 0.00 41 1007.9
20260507100049 66 0 0.0 0.0 0.00 0.00 0.00 41 1007.9
20260507094537 66 0 0.0 0.0 0.00 0.00 0.00 41 1008.1
20260507093037 66 0 0.0 0.0 0.00 0.00 0.00 40 1008.1
20260507091539 67 0 0.0 0.0 0.00 0.00 0.00 40 1008.1
20260507090036 67 0 0.0 0.0 0.00 0.00 0.00 40 1008.2
20260507084545 67 0 0.0 0.0 0.00 0.00 0.00 40 1008.3
20260507083037 68 0 0.0 0.0 0.00 0.00 0.00 43 1008.5
20260507081538 68 0 0.0 0.0 0.00 0.00 0.00 43 1008.5
20260507080046 69 0 0.0 0.0 0.00 0.00 0.00 42 1008.8
20260507074541 69 0 0.0 0.0 0.00 0.00 0.00 41 1008.8
20260507073042 69 0 0.0 0.0 0.00 0.00 0.00 39 1008.9
20260507071535 70 0 0.0 0.0 0.00 0.00 0.00 38 1008.9
20260507070101 71 0 0.0 0.0 0.00 0.00 0.00 36 1008.9
20260507064549 71 0 0.0 0.0 0.00 0.00 0.00 35 1009.1
20260507063041 71 0 0.0 0.0 0.00 0.00 0.00 34 1009.0
20260507061539 72 0 0.0 0.0 0.00 0.00 0.00 34 1009.0
20260507060039 73 0 0.0 0.0 0.00 0.00 0.00 34 1009.0
20260507054552 73 0 0.0 0.0 0.00 0.00 0.00 32 1008.9
20260507053041 74 0 0.0 0.0 0.00 0.00 0.00 30 1009.2
20260507051541 75 0 0.0 0.0 0.00 0.00 0.00 28 1009.0
20260507050047 75 0 0.0 0.0 0.00 0.00 0.00 27 1009.0
20260507044546 76 0 0.0 0.0 0.00 0.00 0.00 26 1009.0
20260507043036 77 0 0.0 0.0 0.00 0.00 0.00 25 1008.9
20260507041542 78 0 0.0 0.0 0.00 0.00 0.00 23 1009.1
20260507040044 78 0 0.0 0.0 0.00 0.00 0.00 23 1008.7
20260507034540 79 0 0.0 0.0 0.00 0.00 0.00 22 1008.4
20260507033042 80 0 0.0 0.0 0.00 0.00 0.00 21 1008.1
20260507031541 80 0 0.0 0.0 0.00 0.00 0.00 19 1007.9
20260507030036 81 0 0.0 0.0 0.00 0.00 0.00 19 1007.7
20260507024538 82 0 0.0 0.0 0.00 0.00 0.00 19 1007.5
20260507023040 84 0 0.0 2.0 0.00 0.00 0.00 18 1007.3
20260507021538 85 0 0.0 1.0 0.00 0.00 0.00 17 1007.1
20260507020104 87 0 0.0 1.0 0.00 0.00 0.00 16 1006.9
20260507014556 88 0 0.0 0.0 0.00 0.00 0.00 16 1007.0
20260507013043 90 0 0.0 0.0 0.00 0.00 0.00 13 1006.8